Lee's Summit, MO

6:05 AM CDT on March 27, 2017 (GMT -0500)
Lee's Summit Municipal | | Change Station

Elev 1004 ft 38.96 °N, 94.37 °W | Updated 12 minutes ago

Rain
Rain Mist
47 °F
Feels Like 47 °F
N
10
Wind Variable Wind from North

Today
High -- | Low -- °F
--% Chance of Precip.
Yesterday
High -- | Low -- °F
Precip. -- in
Pressure 29.84 in
Visibility 5.0 miles
Clouds Overcast 600 ft
Dew Point 46 °F
Humidity 97%
Rainfall 0.19 in
Snow Depth Not available.
7:09 AM 7:36 PM
Waning Crescent, 1% visible
METAR KLXT 271053Z AUTO 36009KT 5SM RA BR OVC006 08/08 A2984 RMK AO2 SLP104 P0006 T00830078 TSNO
Pressure 29.84 in
Visibility 5.0 miles
Clouds Overcast 600 ft
Dew Point 46 °F
Humidity 97%
Rainfall 0.19 in
Snow Depth Not available.
7:09 AM 7:36 PM
Waning Crescent, 1% visible
METAR KLXT 271053Z AUTO 36009KT 5SM RA BR OVC006 08/08 A2984 RMK AO2 SLP104 P0006 T00830078 TSNO

Get Severe Weather Alerts

Thanks for signing up!

Be on the lookout for a verification email in your inbox.

You'll start receiving the daily forecast at 8 AM.

×

10-Day Weather Forecast

Almanac

Astronomy

Mar. 27, 2017 Rise Set
Actual Time
Civil Twilight
Nautical Twilight
Astronomical Twilight
Moon
Length of Visible Light
Length of Day
Tomorrow will be .
, % of the Moon is Illuminated

Today's Extremes

State Highs State Lows

Community

WunderPhotos

Upload Photos

1,962,540 photos uploaded!

WunderBlog® & News

Nearby

Air Quality

  Air Quality AQ Index Pollutant
Not available.

Snow Depth

Station Depth Elevation

Earthquake Activity

City Distance Mag. Time & Date
Minimum magnitude displayed is 2.5.

Earthquake Activity

City Distance Mag. Time & Date
Minimum magnitude displayed is 2.5.

Coastal Water Temperatures

Place Temperature

Stations

Nearby Weather Stations

Station Location Temp. Windchill Dew Point Humidity Wind Precip. Elev Updated Type
                   

Watches & Warnings

There are currently no watches in effect.